Location: Agadir Irigdalene
(31.2522°N, 8.7797°W)
Time: 06:34:19
(UTC+00:00)

SKYMED 2 - Pass Details

Date: 01 December 2020
Orbit: 621 x 623 km, 97.9° (Epoch: 25 January)

Event Time Altitude Azimuth Distance (km) Brightness Sun altitude
Rises 18:11:38 0° 19° (NNE) 2,907 6.6 -8.6°
Reaches altitude 10° 18:13:54 10° 25° (NNE) 1,996 5.8 -9.1°
Maximum altitude 18:18:05 47° 100° (E) 831 3.9 -9.9°
Drops below altitude 10° 18:22:14 10° 174° (S) 1,984 6.3 -10.7°
Sets 18:24:29 0° 180° (S) 2,885 7.3 -11.2°
